Sioux City, IA

7:41 PM CDT on August 17, 2017 (GMT -0500)
Sioux Gateway

Weather History for KSUX - October, 2012

Change the Weather History Date:

Monday, October 22, 2012

  Actual Average Record
Temperature  
Mean Temperature 56 °F 48 °F  
Max Temperature 61 °F 61 °F 85 °F (2003)
Min Temperature 51 °F 36 °F 17 °F (1976)
Degree Days  
Heating Degree Days 9 17  
Month to date heating degree days 331 283  
Since 1 July heating degree days 474 430  
Cooling Degree Days 0 0  
Month to date cooling degree days 0 8  
Year to date cooling degree days 1249 869  
Growing Degree Days 6 (Base 50)    
Moisture  
Dew Point 48 °F    
Average Humidity 75    
Maximum Humidity 86    
Minimum Humidity 64    
Precipitation  
Precipitation T in 0.06 in 2.25 in (2008)
Month to date precipitation 1.04 1.68  
Year to date precipitation 20.65 25.18  
Snow  
Snow 0.00 in 0.00 in 0.60 in (2002)
Month to date snowfall 0.0 0.4  
Since 1 July snowfall 0.0 0.4  
Since 1 September snowfall 0.0 0.4  
Snow Depth 0.00 in    
Sea Level Pressure  
Sea Level Pressure 29.83 in    
Wind  
Wind Speed 7 mph (North)    
Max Wind Speed 14 mph    
Max Gust Speed 17 mph    
Visibility 10 miles    
Events      
T = Trace of Precipitation, MM = Missing Value Source: NWS Daily Summary

Daily Weather History Graph

Daily Weather History Graph

Search for Another Location

Airport or City:

Trip Planner

Search our weather history database for the weather conditions in past years. The results will help you decide how hot, cold, wet, or windy it might be!

Date:

Astronomy

Oct. 22, 2012 Rise Set
Actual Time 7:47 AM CDT 6:31 PM CDT
Civil Twilight 7:18 AM CDT 7:00 PM CDT
Nautical Twilight 6:45 AM CDT 7:33 PM CDT
Astronomical Twilight 6:13 AM CDT 8:05 PM CDT
Moon 2:48 PM CDT (10/22) 12:27 AM CDT (10/22)
Length of Visible Light 11h 41m
Length of Day
10h 44m
First Quarter, 56% of the Moon is Illuminated
Oct 22
First Quarter
Oct 29
Full
Nov 6
Last Quarter
Nov 13
New
Nov 20
First Quarter

Hourly Weather History & Observations

Time (CDT) Temp. Dew Point Humidity Pressure Visibility Wind Dir Wind Speed Gust Speed Precip Events Conditions
12:52 AM 52.0 °F 46.0 °F 80% 29.86 in 10.0 mi NNE 11.5 mph - N/A   Mostly Cloudy
1:52 AM 52.0 °F 46.0 °F 80% 29.83 in 10.0 mi NE 8.1 mph - N/A   Mostly Cloudy
2:52 AM 51.1 °F 46.0 °F 83% 29.83 in 10.0 mi North 3.5 mph - N/A   Partly Cloudy
3:04 AM 51.8 °F 46.4 °F 82% 29.83 in 10.0 mi North 6.9 mph - N/A   Mostly Cloudy
3:52 AM 52.0 °F 46.9 °F 83% 29.82 in 10.0 mi North 9.2 mph - N/A   Overcast
4:52 AM 54.0 °F 46.9 °F 77% 29.82 in 10.0 mi NNE 8.1 mph - N/A   Overcast
5:52 AM 53.1 °F 46.9 °F 80% 29.83 in 10.0 mi NNW 6.9 mph - N/A   Overcast
6:52 AM 51.8 °F 46.4 °F 82% 29.85 in 10.0 mi NNW 10.4 mph - N/A   Overcast
7:10 AM 51.8 °F 46.4 °F 82% 29.85 in 10.0 mi NW 5.8 mph - N/A   Overcast
7:52 AM 53.6 °F 46.4 °F 77% 29.86 in 10.0 mi NNW 8.1 mph - N/A   Overcast
8:52 AM 53.1 °F 46.9 °F 80% 29.87 in 10.0 mi North 11.5 mph - N/A   Overcast
9:03 AM 53.6 °F 46.4 °F 77% 29.87 in 10.0 mi North 8.1 mph - N/A   Overcast
9:39 AM 53.6 °F 46.4 °F 77% 29.87 in 10.0 mi North 10.4 mph - N/A   Overcast
9:52 AM 53.6 °F 46.4 °F 77% 29.88 in 10.0 mi North 10.4 mph - N/A   Overcast
10:52 AM 54.0 °F 46.9 °F 77% 29.88 in 10.0 mi NNE 8.1 mph - N/A   Overcast
11:52 AM 54.0 °F 46.0 °F 75% 29.88 in 10.0 mi NNE 5.8 mph - N/A   Overcast
12:52 PM 57.0 °F 48.0 °F 72% 29.86 in 10.0 mi North 6.9 mph - N/A   Overcast
1:31 PM 59.0 °F 48.2 °F 67% 29.83 in 10.0 mi NNE 11.5 mph - N/A   Overcast
1:52 PM 59.0 °F 48.0 °F 67% 29.83 in 10.0 mi North 9.2 mph - N/A   Overcast
2:52 PM 60.8 °F 48.2 °F 63% 29.81 in 10.0 mi North 8.1 mph - N/A   Overcast
3:52 PM 59.0 °F 48.9 °F 69% 29.82 in 10.0 mi NNE 10.4 mph - N/A   Overcast
4:52 PM 60.1 °F 50.0 °F 69% 29.80 in 10.0 mi NNE 5.8 mph - N/A   Overcast
5:52 PM 60.8 °F 51.8 °F 72% 29.80 in 10.0 mi NNE 8.1 mph - N/A   Overcast
6:52 PM 61.0 °F 52.0 °F 72% 29.80 in 10.0 mi North 5.8 mph - N/A   Overcast
7:52 PM 59.0 °F 52.0 °F 78% 29.80 in 10.0 mi NNW 5.8 mph - 0.00 in   Overcast
8:52 PM 57.9 °F 52.0 °F 81% 29.78 in 10.0 mi North 4.6 mph - N/A   Mostly Cloudy
9:33 PM 55.4 °F 51.8 °F 88% 29.77 in 10.0 mi North 5.8 mph - N/A   Mostly Cloudy
9:52 PM 55.9 °F 51.1 °F 84% 29.77 in 10.0 mi WNW 3.5 mph - N/A   Mostly Cloudy
11:04 PM 57.2 °F 51.8 °F 82% 29.76 in 10.0 mi NW 6.9 mph - N/A   Overcast
11:40 PM 57.2 °F 51.8 °F 82% 29.75 in 10.0 mi NNW 3.5 mph - N/A   Overcast
11:52 PM 57.0 °F 52.0 °F 83% 29.75 in 10.0 mi WNW 3.5 mph - N/A   Overcast